Wind_Speed
19 19 20 19 19 18 16 13 11 10 12 13 12 12 12 14 17 16 16 16 15 18 18 14 7 5 6 8 7 5 4 1 6 7 16 15 16 3 6 5 6 3 3 2 6 8 8
17 18 19 19 20 21 20 17 12 10 10 11 11 11 11 11 13 12 12 11 12 20 18 15 10 2 2 6 9 6 5 1 12 13 14 14 6 2 3 5 3 5 6 5 8 7 5
16 17 18 20 21 24 23 20 14 9 8 9 11 12 10 10 11 12 12 10 6 11 18 20 10 7 19 9 7 5 4 4 11 12 10 15 5 0 4 5 8 8 5 3 9 4 3
15 17 19 20 23 27 28 23 16 9 8 6 9 13 11 10 11 10 12 13 10 13 11 15 10 12 7 12 12 10 7 8 11 9 14 16 5 1 1 11 5 4 5 4 4 5 2
15 17 19 21 24 28 32 25 18 12 8 8 8 10 9 7 7 8 12 16 17 11 6 12 14 11 5 13 11 11 6 7 7 10 16 6 3 2 3 5 4 7 4 3 3 6 1
15 17 19 20 24 27 32 29 21 15 12 9 9 7 8 4 5 9 7 4 13 20 10 4 14 8 8 6 6 4 4 10 7 9 9 3 2 3 3 4 6 3 5 3 5 5 5
15 17 18 19 22 25 29 31 23 16 14 13 9 4 4 2 3 6 14 9 2 3 18 10 7 12 10 15 20 14 8 12 12 8 4 3 5 4 2 3 3 5 5 6 2 4 4
15 17 17 18 20 23 26 28 28 18 14 15 13 6 4 3 2 6 13 12 8 3 2 12 10 13 13 19 5 11 12 8 8 2 4 4 4 2 1 6 6 4 7 3 2 5 3
15 16 17 17 19 21 24 26 28 23 14 16 16 9 9 10 9 9 12 11 9 8 2 8 9 8 5 5 12 10 7 2 4 2 2 5 1 1 1 6 7 4 5 3 5 2 5
14 15 16 18 19 20 22 24 27 27 16 15 17 13 6 11 8 8 6 7 8 5 5 9 9 9 9 5 4 3 4 3 4 2 0 6 4 4 4 6 2 4 3 3 7 3 3
13 14 16 17 19 20 22 24 26 27 21 14 16 14 8 3 4 3 7 6 5 2 5 11 8 9 9 5 1 6 4 3 2 2 4 2 5 6 7 1 2 3 1 3 4 5 4
12 13 15 17 18 20 22 24 25 26 24 12 16 14 10 5 3 5 5 4 4 6 2 6 5 7 7 9 5 4 4 6 2 5 6 3 2 4 2 2 2 6 5 6 4 3 3
10 12 13 15 17 19 21 23 25 26 25 15 10 16 11 7 4 3 2 3 5 6 3 6 3 5 1 6 7 8 5 7 4 5 6 5 4 4 5 4 2 4 5 3 4 4 4
11 11 13 14 16 18 20 22 24 26 25 20 10 9 16 8 5 3 4 5 8 4 4 3 3 3 4 5 4 7 3 5 5 5 3 4 5 7 8 3 1 2 3 5 5 3 3
12 13 13 14 16 17 19 21 23 25 26 22 11 6 16 8 6 3 2 6 5 3 3 5 3 5 5 3 2 4 5 2 2 4 4 3 3 3 4 3 2 2 2 2 7 2 2
12 12 14 15 16 17 19 20 22 24 25 24 11 4 15 9 6 2 5 3 1 2 3 3 3 3 5 6 3 4 2 2 4 3 2 2 4 2 4 1 6 2 5 3 3 3 2
12 12 14 14 15 16 17 19 21 23 24 24 11 3 14 12 5 6 4 2 1 1 2 4 3 3 3 3 4 4 1 1 0 3 4 2 2 4 2 4 1 2 2 5 3 2 4
11 12 13 14 15 16 16 17 19 21 23 23 8 3 13 10 5 4 3 3 1 1 2 1 2 2 1 4 5 4 3 3 8 3 1 0 4 3 1 1 1 1 1 3 3 2 2
9 11 13 14 16 17 18 17 19 20 20 21 7 4 9 9 3 2 0 1 1 1 2 2 2 2 1 3 3 3 3 2 7 4 2 1 1 3 4 3 2 2 3 4 4 2 4
9 9 10 13 15 17 17 17 18 18 17 15 5 3 5 8 6 4 2 1 2 1 2 1 1 2 1 3 2 1 3 3 6 5 8 3 1 3 5 4 4 3 4 4 4 3 3
8 9 10 12 14 15 16 15 15 15 15 10 6 2 2 2 5 3 2 0 1 1 1 1 2 2 1 2 1 1 1 2 3 4 3 3 2 4 3 4 3 3 5 8 8 5 6
9 9 9 10 13 13 14 14 13 13 11 6 4 1 2 2 1 1 3 0 1 1 1 2 2 2 2 2 2 3 3 3 2 1 2 2 3 2 3 1 3 5 7 7 4 2 7
11 10 9 9 10 12 11 13 12 10 10 4 3 2 0 1 1 2 3 3 2 1 0 0 0 1 2 0 3 2 2 2 2 2 2 2 4 1 3 1 5 5 6 6 5 5 5
15 13 11 10 8 9 11 12 12 11 9 5 4 2 1 2 1 3 2 3 4 4 3 1 2 1 1 0 0 1 2 2 2 5 2 3 3 2 3 4 1 2 3 5 6 4 6
18 17 14 10 8 8 9 11 11 10 10 7 4 3 2 2 3 3 4 3 1 2 3 4 4 3 3 1 2 3 3 1 3 4 2 3 3 1 1 2 6 2 2 4 3 1 3
20 19 16 12 12 9 8 9 11 10 8 8 5 4 2 1 3 2 2 4 3 2 2 2 3 5 4 3 2 1 3 2 2 1 3 3 4 3 1 2 4 3 2 3 4 2 5
13 14 14 16 15 12 11 10 10 11 10 8 6 4 2 3 3 5 4 3 4 3 2 1 3 3 4 2 2 4 4 3 3 4 3 2 1 4 3 3 8 5 5 3 2 3 7
13 12 14 16 18 17 15 13 13 12 12 10 8 7 5 4 8 7 8 8 6 5 4 5 2 1 3 2 3 3 3 4 2 5 6 6 5 4 3 2 7 8 3 4 2 4 7
12 14 15 16 17 18 20 19 17 17 16 15 13 8 7 7 7 10 11 15 15 11 5 11 3 5 9 3 1 2 2 0 2 3 1 3 6 4 8 6 4 5 0 2 7 8 5
Wind_Direction
47 41 35 29 23 16 4 348 341 336 343 358 4 13 16 14 13 20 20 30 41 39 26 34 44 71 60 44 15 16 343 126 161 166 175 164 163 152 135 157 127 141 174 98 107 129 129
42 36 31 26 22 17 9 358 338 340 330 339 354 346 358 7 14 11 9 20 28 31 32 24 31 37 15 56 12 15 346 85 134 107 149 150 146 64 167 138 147 149 127 109 89 100 97
35 30 27 23 20 17 9 4 350 341 345 336 352 356 349 353 2 355 349 333 344 6 32 28 45 54 58 17 40 40 58 103 159 136 127 151 52 313 170 115 126 139 90 66 33 38 92
29 25 26 21 20 16 12 11 2 352 356 337 346 357 8 3 4 18 29 15 328 316 358 26 55 56 45 54 66 64 90 127 127 125 131 157 300 236 220 125 53 69 52 102 353 21 37
25 22 25 22 22 18 17 13 12 8 3 353 330 354 7 58 48 27 12 15 11 21 353 29 54 56 36 42 53 46 91 92 146 140 139 129 316 126 109 92 47 21 117 107 95 38 252
22 22 23 23 21 20 21 18 14 16 10 358 348 335 353 14 1 9 10 360 53 49 41 31 36 57 5 1 33 14 104 124 107 162 145 354 40 85 41 86 181 146 113 53 111 339 49
20 21 23 21 21 18 20 22 19 13 12 4 343 326 346 42 65 14 45 30 13 29 53 63 42 90 57 66 81 79 125 126 110 144 123 319 70 110 95 100 134 136 117 109 26 340 86
19 19 21 18 19 17 16 18 21 13 1 2 352 303 252 196 233 322 350 24 41 15 42 53 80 94 106 51 60 61 67 91 100 164 353 31 65 318 272 90 97 70 114 70 71 10 85
16 18 17 15 16 16 13 12 14 15 5 360 358 338 245 239 271 308 335 0 359 2 74 24 43 61 117 117 75 35 62 54 114 139 244 95 327 339 55 57 84 38 105 166 132 106 63
11 12 12 12 13 13 11 9 9 8 5 8 5 359 315 243 272 313 346 359 351 355 70 326 353 20 359 190 88 170 323 263 25 126 71 73 335 108 67 73 58 62 313 100 99 90 151
3 6 7 7 8 10 9 8 8 7 7 11 14 13 2 290 240 335 337 344 350 5 53 313 327 350 26 83 350 28 70 130 79 337 117 344 13 37 69 351 354 145 141 87 97 90 101
356 359 3 3 4 6 7 6 5 8 8 4 19 23 14 7 308 291 313 327 336 45 287 336 327 355 16 26 25 13 69 68 58 56 36 75 34 51 76 40 62 143 75 45 55 78 42
344 349 357 359 360 2 5 3 4 5 6 358 3 28 18 17 12 354 354 326 41 87 282 313 323 9 37 359 13 29 32 26 46 51 16 2 9 352 38 74 61 82 61 17 20 14 213
327 340 346 355 356 359 1 2 2 3 3 360 341 342 11 17 10 20 354 47 69 244 253 320 318 309 68 4 37 8 56 30 20 46 79 107 1 6 341 38 171 63 139 149 166 174 242
323 331 339 348 351 355 358 360 360 0 360 359 350 357 9 13 17 358 46 49 187 239 333 339 336 32 352 8 96 86 51 21 313 8 99 105 31 324 41 2 34 174 66 141 106 68 48
318 326 333 341 347 352 354 355 358 360 360 357 352 354 7 12 23 38 74 122 24 258 338 2 37 21 354 335 28 59 34 250 326 16 208 182 84 357 299 296 41 76 136 65 7 120 273
317 326 329 333 340 346 349 351 355 358 0 359 353 353 360 1 33 60 91 179 262 329 18 22 2 346 3 346 22 2 301 358 330 316 64 120 98 300 342 14 4 26 32 56 111 78 155
319 317 319 323 329 334 341 347 351 359 360 2 1 23 355 2 31 50 101 158 142 59 54 61 102 33 21 1 11 31 23 347 343 320 67 154 123 114 159 283 297 32 90 110 108 238 57
314 306 311 317 322 327 333 342 349 357 1 360 358 358 3 15 73 22 226 133 110 65 49 71 63 71 42 27 32 36 6 22 11 19 341 250 16 77 357 358 347 188 166 114 106 96 201
325 330 323 316 317 322 329 336 346 351 357 0 359 19 31 51 72 116 125 30 93 104 96 94 159 151 90 53 13 29 12 358 7 48 24 17 44 170 182 185 130 186 186 175 135 136 186
309 324 334 333 323 316 319 330 342 345 352 1 19 71 39 327 12 68 49 70 75 57 97 80 74 40 130 93 69 98 242 332 13 11 44 81 30 34 320 333 322 237 187 181 195 186 188
284 300 318 337 340 326 318 324 337 349 356 11 21 27 86 99 349 55 8 48 318 335 3 349 104 147 167 177 193 208 167 202 201 32 57 352 164 106 306 81 195 265 260 249 269 296 280
269 279 298 315 338 348 337 333 338 354 7 41 27 22 312 326 71 93 212 162 165 167 336 330 288 52 343 222 190 272 260 141 142 177 151 117 131 80 263 237 272 272 212 184 182 191 189
257 266 276 291 313 339 350 344 348 359 15 18 15 349 301 260 181 215 206 198 193 185 181 213 180 169 152 329 305 114 101 105 98 26 32 128 100 119 250 360 320 277 161 189 194 201 209
253 258 259 267 285 312 330 343 348 360 10 12 1 357 325 277 222 261 222 236 205 221 199 196 195 193 175 128 33 1 341 19 50 50 11 25 124 81 131 228 288 65 222 154 177 272 193
236 244 260 264 266 279 298 315 325 334 352 359 1 347 316 316 258 276 157 201 208 221 326 226 198 182 171 88 83 169 246 249 274 8 47 74 75 115 132 160 242 220 199 192 162 313 206
233 229 244 258 258 259 272 287 297 308 315 329 341 358 299 262 247 208 196 198 181 165 160 213 178 171 180 102 153 190 239 178 226 196 170 110 90 190 195 255 286 242 221 151 171 227 210
272 267 258 256 259 260 260 266 267 276 289 291 297 312 313 272 274 243 229 212 196 194 163 165 106 203 69 160 174 215 199 222 180 179 176 177 155 198 141 202 275 183 118 174 212 344 317
283 284 280 272 266 264 261 258 258 264 262 266 268 277 285 273 277 278 263 244 244 236 217 189 211 170 187 108 193 120 204 101 190 250 22 228 192 188 189 212 251 206 182 58 331 301 290
Height
1543 1542 1540 1538 1535 1532 1529 1527 1526 1524 1522 1520 1518 1516 1514 1511 1509 1506 1502 1499 1496 1494 1492 1489 1488 1487 1486 1486 1490 1488 1488 1488 1489 1491 1493 1496 1500 1503 1504 1505 1507 1510 1510 1510 1508 1510 1513
1544 1543 1541 1539 1536 1532 1529 1526 1524 1522 1521 1519 1518 1516 1514 1512 1510 1507 1504 1501 1499 1496 1493 1490 1488 1488 1488 1491 1490 1489 1489 1489 1491 1492 1493 1497 1501 1503 1504 1504 1506 1508 1510 1510 1509 1512 1514
1546 1544 1542 1539 1536 1533 1529 1525 1522 1521 1519 1518 1517 1516 1514 1512 1510 1508 1505 1502 1499 1498 1495 1492 1489 1489 1490 1494 1491 1490 1490 1491 1492 1492 1495 1498 1501 1503 1503 1503 1506 1508 1511 1511 1513 1514 1516
1547 1545 1543 1540 1537 1533 1529 1524 1521 1520 1518 1517 1516 1515 1514 1512 1510 1508 1505 1502 1499 1497 1497 1495 1492 1491 1493 1495 1494 1493 1494 1494 1496 1497 1499 1500 1502 1503 1503 1504 1507 1510 1513 1517 1516 1514 1516
1548 1546 1544 1541 1538 1534 1530 1525 1522 1520 1518 1517 1516 1515 1513 1513 1511 1509 1507 1504 1500 1498 1497 1497 1495 1493 1499 1498 1497 1496 1496 1496 1497 1499 1501 1504 1504 1504 1504 1507 1514 1517 1523 1519 1516 1516 1516
1549 1547 1545 1542 1539 1536 1532 1527 1523 1521 1520 1518 1516 1515 1513 1512 1512 1510 1507 1505 1504 1500 1498 1498 1497 1499 1503 1502 1498 1496 1497 1499 1499 1501 1503 1503 1503 1505 1508 1510 1517 1517 1524 1522 1519 1521 1517
1550 1548 1545 1543 1540 1537 1534 1529 1525 1523 1521 1518 1516 1515 1513 1513 1512 1510 1508 1506 1507 1505 1501 1504 1505 1504 1505 1503 1500 1499 1498 1500 1502 1504 1507 1505 1509 1513 1512 1510 1512 1515 1518 1521 1524 1523 1521
1551 1549 1547 1544 1541 1538 1535 1531 1527 1523 1521 1518 1516 1514 1513 1512 1511 1510 1509 1507 1508 1510 1507 1505 1505 1505 1505 1505 1503 1502 1502 1505 1509 1509 1505 1508 1514 1513 1512 1510 1514 1516 1518 1526 1526 1524 1522
1552 1550 1547 1545 1542 1539 1536 1532 1528 1524 1520 1518 1515 1512 1511 1511 1510 1510 1509 1509 1507 1507 1507 1507 1506 1506 1507 1506 1508 1505 1505 1504 1506 1508 1508 1509 1515 1512 1512 1515 1516 1526 1523 1526 1523 1527 1533
1552 1550 1548 1545 1543 1540 1537 1533 1529 1524 1520 1517 1514 1511 1509 1510 1513 1510 1509 1509 1507 1507 1519 1516 1508 1508 1507 1506 1508 1507 1507 1508 1505 1509 1510 1514 1514 1513 1515 1519 1520 1523 1525 1525 1525 1528 1538
1553 1550 1548 1546 1543 1541 1538 1534 1530 1525 1521 1518 1514 1511 1509 1508 1509 1510 1511 1508 1507 1507 1545 1516 1511 1510 1507 1508 1509 1508 1508 1508 1510 1510 1510 1520 1517 1517 1519 1523 1520 1525 1525 1526 1530 1537 1544
1552 1550 1548 1546 1544 1541 1538 1535 1531 1526 1522 1518 1516 1513 1511 1509 1509 1509 1508 1507 1508 1525 1543 1522 1514 1513 1510 1509 1509 1508 1508 1508 1509 1510 1513 1521 1519 1521 1522 1524 1522 1525 1527 1531 1537 1540 1554
1551 1550 1548 1545 1543 1541 1538 1536 1531 1527 1522 1518 1516 1514 1512 1510 1509 1508 1508 1508 1524 1541 1529 1524 1520 1516 1516 1517 1515 1514 1517 1518 1521 1525 1530 1524 1525 1524 1523 1523 1524 1526 1533 1557 1550 1557 1549
1551 1549 1547 1545 1543 1541 1538 1536 1532 1527 1523 1518 1515 1514 1512 1510 1509 1508 1508 1512 1534 1534 1529 1523 1521 1518 1517 1517 1519 1521 1521 1528 1523 1524 1537 1542 1543 1532 1528 1530 1527 1531 1533 1552 1551 1556 1550
1550 1549 1547 1545 1543 1541 1538 1535 1532 1527 1523 1518 1515 1514 1513 1511 1509 1509 1509 1534 1543 1533 1528 1526 1522 1523 1522 1519 1517 1521 1530 1532 1529 1527 1528 1535 1536 1533 1532 1531 1532 1529 1537 1539 1560 1580 1562
1548 1547 1546 1544 1543 1540 1538 1535 1531 1527 1523 1519 1516 1514 1513 1511 1510 1509 1513 1534 1532 1530 1529 1528 1526 1527 1527 1526 1522 1521 1527 1528 1529 1527 1526 1530 1536 1537 1534 1532 1532 1532 1539 1541 1548 1546 1549
1546 1546 1545 1543 1541 1540 1537 1534 1531 1527 1523 1519 1516 1515 1514 1511 1510 1511 1532 1535 1531 1530 1530 1531 1531 1530 1530 1529 1529 1530 1529 1529 1527 1526 1524 1527 1531 1540 1535 1538 1537 1537 1537 1544 1547 1553 1547
1545 1544 1543 1541 1540 1539 1537 1534 1530 1527 1523 1519 1517 1517 1516 1512 1513 1521 1529 1527 1527 1528 1529 1529 1528 1529 1529 1530 1532 1530 1531 1532 1530 1528 1526 1528 1535 1548 1538 1539 1538 1538 1538 1543 1546 1549 1566
1543 1542 1541 1540 1539 1538 1537 1534 1531 1526 1522 1520 1518 1519 1518 1514 1527 1530 1528 1528 1528 1528 1528 1528 1530 1530 1530 1530 1530 1532 1532 1532 1531 1531 1531 1530 1535 1551 1541 1542 1539 1538 1539 1544 1549 1552 1553
1541 1540 1539 1538 1537 1536 1535 1534 1531 1528 1524 1522 1520 1523 1520 1519 1523 1526 1527 1529 1528 1528 1529 1528 1529 1529 1530 1531 1532 1531 1532 1531 1530 1530 1531 1531 1538 1530 1533 1529 1534 1537 1538 1541 1540 1551 1544
1539 1539 1538 1537 1536 1535 1533 1532 1530 1528 1526 1524 1522 1525 1526 1531 1527 1527 1527 1527 1527 1527 1529 1529 1530 1531 1531 1531 1531 1532 1533 1531 1530 1530 1530 1532 1537 1546 1538 1539 1537 1532 1530 1537 1537 1535 1532
1538 1537 1537 1536 1534 1533 1532 1531 1529 1527 1525 1525 1525 1526 1526 1527 1528 1527 1528 1529 1529 1528 1529 1529 1529 1530 1530 1531 1531 1531 1531 1532 1530 1532 1532 1534 1538 1541 1535 1537 1539 1539 1537 1539 1538 1536 1535
1535 1535 1535 1534 1533 1531 1530 1529 1528 1527 1525 1524 1525 1526 1526 1529 1528 1528 1527 1526 1527 1529 1530 1529 1530 1531 1531 1530 1530 1531 1530 1530 1531 1532 1534 1535 1539 1541 1532 1537 1535 1530 1525 1530 1529 1530 1528
1531 1532 1532 1533 1531 1530 1529 1529 1528 1527 1526 1526 1526 1525 1525 1527 1528 1527 1526 1525 1525 1525 1527 1528 1529 1529 1531 1530 1530 1530 1531 1531 1532 1534 1534 1537 1538 1542 1545 1540 1540 1513 1516 1517 1518 1518 1521
1527 1528 1529 1529 1529 1529 1528 1529 1528 1527 1526 1526 1526 1526 1526 1527 1525 1524 1525 1526 1526 1525 1525 1524 1525 1527 1527 1528 1531 1531 1534 1531 1534 1535 1535 1536 1539 1544 1547 1551 1524 1519 1516 1516 1515 1515 1515
1521 1523 1525 1526 1526 1527 1526 1527 1528 1527 1526 1525 1525 1525 1526 1526 1525 1524 1524 1525 1526 1527 1526 1525 1526 1525 1526 1528 1531 1528 1529 1527 1530 1535 1536 1536 1538 1543 1548 1544 1522 1511 1513 1513 1515 1518 1514
1515 1517 1520 1522 1523 1523 1524 1524 1525 1525 1525 1526 1525 1524 1524 1524 1521 1522 1522 1524 1523 1524 1526 1525 1525 1526 1527 1531 1532 1535 1533 1530 1529 1533 1539 1540 1540 1542 1544 1543 1527 1511 1510 1513 1515 1518 1509
1512 1512 1513 1516 1518 1519 1520 1520 1521 1521 1522 1523 1524 1524 1524 1522 1520 1519 1518 1519 1519 1520 1522 1524 1525 1525 1528 1531 1532 1532 1535 1531 1529 1529 1533 1536 1541 1542 1543 1543 1536 1508 1510 1512 1512 1508 1509
1509 1509 1510 1511 1512 1512 1514 1515 1517 1517 1517 1518 1519 1521 1521 1522 1519 1516 1515 1515 1516 1517 1518 1518 1518 1517 1519 1526 1530 1531 1531 1537 1534 1528 1528 1529 1522 1526 1524 1518 1506 1507 1508 1508 1508 1508 1508